Zurück zum Katalog

PEGASUS DEB

AktivPO
NORAD 24594·DEBRIS·🇺🇸 United States

Gestartet May 19, 1994 von Vandenberg Space Force Base

Loading…

Nächste Überflüge (nächste 24 Stunden)

TLE

AktuellSource: Space-Track

Epoche: Sep 14, 2026, 11:29 UTC

1 24594U 94029YW  26257.47915082  .00003268  00000-0  66471-3 0  9992
2 24594  81.4444 271.4906 0446218  66.8947 297.8603 14.12953948520250

Verfolge PEGASUS DEB in Echtzeit mit AllMySat

Download on the App Store